葛-汪彗星

142P/Ge-Wang (2021)

English version
Home page
Updated on February 28, 2022

---------------------------------------------------------------------

・ プロフィール

・ 写真集

・ 軌道要素

Epoch 2021 July 5.0 TT = JDT 2459400.5                                          
T 2021 May 12.62787 TT                                  Rudenko                 
q   2.5129578            (2000.0)            P               Q                  
n   0.08811803     Peri.  173.95599     +0.98463499     +0.17397502             
a   5.0014146      Node   175.93151     -0.16778577     +0.96643939             
e   0.4975506      Incl.   12.25054     -0.04839296     +0.18901747             
P  11.2                                                                         
From 90 observations 1988 Oct. 11-2021 Aug. 16, mean residual 0".9.             
     Nongravitational parameters A1 = +6.03, A2 = -0.3485.                      

・ 光度変化

        m1 = 12.5 + 5 logΔ + 15 log r

---------------------------------------------------------------------

軌道要素はM.P.E.C. 2021-R75に掲載されたものです。
光度グラフはComet for Windowsで作成したものです。

---------------------------------------------------------------------

Copyright(C) Seiichi Yoshida (comet@aerith.net). All rights reserved.